Kill Devil Hills, NC

5:26 AM EDT on August 24, 2017 (GMT -0400)
First Flight

Weather History for KFFA - December, 2012

Change the Weather History Date:

Friday, December 21, 2012

  Actual Average (KMQI) Record (KMQI)
Temperature  
Mean Temperature 50 °F -  
Max Temperature 62 °F 50 °F 69 °F (1967)
Min Temperature 39 °F 37 °F 25 °F (1980)
Degree Days  
Heating Degree Days 14    
Moisture  
Dew Point 35 °F    
Average Humidity 61    
Maximum Humidity 95    
Minimum Humidity 44    
Precipitation  
Precipitation 0.29 in - - ()
Sea Level Pressure  
Sea Level Pressure 29.55 in    
Wind  
Wind Speed 16 mph (WSW)    
Max Wind Speed 23 mph    
Max Gust Speed 38 mph    
Visibility 10 miles    
Events      
Averages and records for this station are not official NWS values.
T = Trace of Precipitation, MM = Missing Value Source: NWS Daily Summary

Daily Weather History Graph

Daily Weather History Graph

Search for Another Location

Airport or City:

Trip Planner

Search our weather history database for the weather conditions in past years. The results will help you decide how hot, cold, wet, or windy it might be!

Date:

Astronomy

Dec. 21, 2012 Rise Set
Actual Time 7:09 AM EST 4:52 PM EST
Civil Twilight 6:41 AM EST 5:21 PM EST
Nautical Twilight 6:08 AM EST 5:53 PM EST
Astronomical Twilight 5:37 AM EST 6:24 PM EST
Moon 12:31 PM EST (12/21) 1:02 AM EST (12/21)
Length of Visible Light 10h 39m
Length of Day
9h 42m
Waxing Gibbous, 64% of the Moon is Illuminated
Dec 21
Waxing Gibbous
Dec 28
Full
Jan 4
Last Quarter
Jan 11
New
Jan 18
First Quarter

Hourly Weather History & Observations

Time (EST) Temp. Windchill Dew Point Humidity Pressure Visibility Wind Dir Wind Speed Gust Speed Precip Events Conditions
12:15 AM 62.1 °F - 54.5 °F 76% 29.62 in - SSE 11.5 mph 21.9 mph N/A   Overcast
12:35 AM 61.7 °F - 55.2 °F 79% 29.59 in - SSE 16.1 mph 24.2 mph N/A   Overcast
12:55 AM 60.3 °F - 56.3 °F 87% 29.55 in - SSE 16.1 mph 26.5 mph 0.04 in   Unknown
1:15 AM 59.4 °F - 56.5 °F 90% 29.53 in - SSE 13.8 mph 28.8 mph 0.02 in   Unknown
1:35 AM 59.5 °F - 57.0 °F 91% 29.51 in - SSE 19.6 mph 27.6 mph 0.08 in   Unknown
1:55 AM 60.1 °F - 57.9 °F 93% 29.48 in - SSE 13.8 mph 28.8 mph 0.09 in   Unknown
2:15 AM 60.4 °F - 57.7 °F 91% 29.45 in - SSE 17.3 mph 27.6 mph N/A   Unknown
2:35 AM 61.2 °F - 58.5 °F 91% 29.42 in - SSE 16.1 mph 26.5 mph 0.01 in   Unknown
2:55 AM 61.0 °F - 58.8 °F 93% 29.40 in - SSE 18.4 mph 31.1 mph 0.04 in   Overcast
3:15 AM 61.0 °F - 59.0 °F 93% 29.39 in - South 18.4 mph 34.5 mph 0.06 in   Unknown
3:35 AM 61.0 °F - 59.5 °F 95% 29.38 in - South 16.1 mph 34.5 mph 0.12 in   Unknown
3:55 AM 61.3 °F - 59.9 °F 95% 29.40 in - South 12.7 mph 35.7 mph 0.12 in   Unknown
4:15 AM 61.3 °F - 59.9 °F 95% 29.39 in - SW 12.7 mph 23.0 mph N/A   Unknown
4:35 AM 61.3 °F - 59.7 °F 94% 29.39 in - WSW 16.1 mph 23.0 mph N/A   Unknown
4:55 AM 60.4 °F - 57.7 °F 91% 29.42 in - West 12.7 mph 25.3 mph N/A   Unknown
5:15 AM 57.0 °F - 51.4 °F 82% 29.43 in 10.0 mi WSW 16.1 mph 26.5 mph N/A   Overcast
5:35 AM 54.1 °F - 44.4 °F 70% 29.45 in 10.0 mi WSW 17.3 mph 33.4 mph N/A   Scattered Clouds
5:55 AM 52.2 °F - 41.2 °F 66% 29.46 in 10.0 mi WSW 13.8 mph 27.6 mph N/A   Clear
6:15 AM 51.3 °F - 41.4 °F 69% 29.47 in 10.0 mi WSW 11.5 mph 28.8 mph N/A   Clear
6:35 AM 50.4 °F - 40.6 °F 69% 29.47 in 10.0 mi SW 11.5 mph 21.9 mph N/A   Clear
6:55 AM 49.3 °F - 41.4 °F 74% 29.48 in 10.0 mi WSW 12.7 mph 23.0 mph N/A   Clear
7:15 AM 48.6 °F - 40.3 °F 73% 29.49 in 10.0 mi WSW 15.0 mph 25.3 mph N/A   Clear
7:35 AM 48.0 °F - 39.7 °F 73% 29.50 in 10.0 mi WSW 15.0 mph 25.3 mph N/A   Clear
7:55 AM 47.7 °F - 38.3 °F 70% 29.51 in 10.0 mi WSW 16.1 mph 28.8 mph N/A   Scattered Clouds
8:15 AM 47.7 °F - 34.3 °F 60% 29.52 in 10.0 mi WSW 19.6 mph 32.2 mph N/A   Scattered Clouds
8:35 AM 47.1 °F - 31.8 °F 55% 29.53 in 10.0 mi WSW 17.3 mph 31.1 mph N/A   Scattered Clouds
8:55 AM 47.1 °F - 31.3 °F 54% 29.54 in 10.0 mi WSW 19.6 mph 29.9 mph N/A   Overcast
9:15 AM 46.8 °F - 30.6 °F 53% 29.55 in 10.0 mi WSW 20.7 mph 31.1 mph N/A   Overcast
9:35 AM 46.0 °F 37.8 °F 29.5 °F 52% 29.55 in 10.0 mi West 23.0 mph 38.0 mph N/A   Overcast
9:55 AM 46.6 °F - 29.3 °F 51% 29.56 in 10.0 mi WSW 17.3 mph 34.5 mph N/A   Mostly Cloudy
10:15 AM 46.8 °F - 28.6 °F 49% 29.56 in 10.0 mi West 18.4 mph 31.1 mph N/A   Scattered Clouds
10:35 AM 47.7 °F - 28.9 °F 48% 29.55 in 10.0 mi West 21.9 mph 27.6 mph N/A   Scattered Clouds
10:55 AM 47.5 °F - 28.6 °F 48% 29.55 in 10.0 mi West 15.0 mph 27.6 mph N/A   Scattered Clouds
11:15 AM 46.9 °F - 29.3 °F 50% 29.55 in 10.0 mi West 15.0 mph 27.6 mph N/A   Scattered Clouds
11:35 AM 47.1 °F - 29.3 °F 50% 29.54 in 10.0 mi West 19.6 mph 31.1 mph N/A   Scattered Clouds
11:55 AM 46.0 °F 38.0 °F 28.2 °F 50% 29.53 in 10.0 mi West 21.9 mph 31.1 mph N/A   Scattered Clouds
12:15 PM 46.6 °F - 28.2 °F 49% 29.53 in 10.0 mi West 18.4 mph 29.9 mph N/A   Overcast
12:35 PM 46.4 °F 40.1 °F 28.9 °F 51% 29.53 in 10.0 mi WSW 15.0 mph 26.5 mph N/A   Overcast
12:55 PM 46.2 °F 40.5 °F 29.5 °F 52% 29.53 in 10.0 mi WSW 12.7 mph 26.5 mph N/A   Overcast
1:15 PM 45.9 °F 39.4 °F 29.3 °F 52% 29.53 in 10.0 mi West 15.0 mph 25.3 mph N/A   Overcast
1:35 PM 46.0 °F 39.0 °F 29.5 °F 52% 29.52 in 10.0 mi WSW 17.3 mph 28.8 mph N/A   Overcast
1:55 PM 45.9 °F 39.7 °F 29.5 °F 53% 29.52 in 10.0 mi West 13.8 mph 25.3 mph N/A   Mostly Cloudy
2:15 PM 45.9 °F 39.7 °F 29.5 °F 53% 29.53 in 10.0 mi West 13.8 mph 25.3 mph N/A   Mostly Cloudy
2:35 PM 45.1 °F 38.8 °F 29.1 °F 54% 29.53 in 10.0 mi West 13.8 mph 27.6 mph N/A   Overcast
2:55 PM 45.0 °F 36.9 °F 30.0 °F 56% 29.54 in 10.0 mi West 20.7 mph 29.9 mph N/A   Mostly Cloudy
3:15 PM 44.2 °F 38.0 °F 30.7 °F 59% 29.54 in 10.0 mi WSW 12.7 mph 24.2 mph N/A   Mostly Cloudy
3:35 PM 45.0 °F 37.1 °F 29.3 °F 54% 29.54 in 10.0 mi West 19.6 mph 27.6 mph N/A   Mostly Cloudy
3:55 PM 45.7 °F 39.8 °F 28.8 °F 52% 29.55 in 10.0 mi West 12.7 mph 31.1 mph N/A   Mostly Cloudy
4:15 PM 45.7 °F 38.8 °F 27.5 °F 49% 29.55 in 10.0 mi West 16.1 mph 28.8 mph N/A   Mostly Cloudy
4:35 PM 45.5 °F 38.9 °F 26.2 °F 47% 29.56 in 10.0 mi West 15.0 mph 24.2 mph N/A   Overcast
4:55 PM 45.3 °F 38.7 °F 26.4 °F 48% 29.56 in 10.0 mi West 15.0 mph 26.5 mph N/A   Overcast
5:15 PM 45.1 °F 37.3 °F 25.0 °F 45% 29.57 in 10.0 mi West 19.6 mph 28.8 mph N/A   Overcast
5:35 PM 44.8 °F 37.4 °F 26.1 °F 48% 29.59 in 10.0 mi West 17.3 mph 25.3 mph N/A   Overcast
5:55 PM 44.6 °F 36.6 °F 24.4 °F 45% 29.60 in 10.0 mi West 19.6 mph 29.9 mph N/A   Overcast
6:15 PM 44.6 °F 36.4 °F 24.1 °F 44% 29.61 in 10.0 mi West 20.7 mph 32.2 mph N/A   Overcast
6:35 PM 44.4 °F 36.6 °F 24.8 °F 46% 29.61 in 10.0 mi West 18.4 mph 26.5 mph N/A   Overcast
6:55 PM 44.1 °F 36.5 °F 23.9 °F 45% 29.62 in 10.0 mi West 17.3 mph 33.4 mph N/A   Overcast
7:15 PM 43.7 °F 36.0 °F 23.5 °F 45% 29.62 in 10.0 mi West 17.3 mph 28.8 mph N/A   Mostly Cloudy
7:35 PM 43.2 °F 36.6 °F 24.3 °F 47% 29.63 in 10.0 mi West 12.7 mph 24.2 mph N/A   Clear
7:55 PM 43.0 °F 34.8 °F 24.3 °F 48% 29.63 in 10.0 mi West 18.4 mph 28.8 mph N/A   Clear
8:15 PM 43.0 °F 33.8 °F 23.5 °F 46% 29.64 in 10.0 mi West 23.0 mph 31.1 mph N/A   Scattered Clouds
8:35 PM 42.4 °F 33.8 °F 23.2 °F 47% 29.64 in 10.0 mi West 19.6 mph 33.4 mph N/A   Clear
8:55 PM 42.1 °F 33.3 °F 23.7 °F 48% 29.65 in 10.0 mi West 19.6 mph 33.4 mph N/A   Clear
9:15 PM 41.5 °F 32.6 °F 22.5 °F 47% 29.66 in 10.0 mi West 19.6 mph 33.4 mph N/A   Clear
9:35 PM 41.2 °F 31.9 °F 22.3 °F 47% 29.66 in 10.0 mi West 20.7 mph 31.1 mph N/A   Scattered Clouds
9:55 PM 40.6 °F 31.4 °F 22.1 °F 48% 29.67 in 10.0 mi West 19.6 mph 32.2 mph N/A   Scattered Clouds
10:15 PM 40.5 °F 30.7 °F 22.1 °F 48% 29.68 in 10.0 mi West 21.9 mph 32.2 mph N/A   Clear
10:35 PM 40.1 °F 30.2 °F 21.9 °F 48% 29.68 in 10.0 mi West 21.9 mph 33.4 mph N/A   Clear
10:55 PM 39.7 °F 31.2 °F 22.6 °F 50% 29.68 in 10.0 mi West 16.1 mph 33.4 mph N/A   Clear
11:15 PM 39.6 °F 29.7 °F 22.6 °F 51% 29.68 in 10.0 mi West 20.7 mph 36.8 mph N/A   Clear
11:35 PM 39.6 °F 30.6 °F 22.6 °F 51% 29.69 in 10.0 mi West 17.3 mph 33.4 mph N/A   Clear
11:55 PM 39.4 °F 29.2 °F 23.2 °F 52% 29.69 in 10.0 mi West 21.9 mph 29.9 mph N/A   Clear